Regional Weather Roundup
Issued by NWS Green Bay, WI

Home | Current Version | Previous Version | Text Only | Print | Product List | Glossary On
Versions: 1 2 3 4 5 6 7 8 9 10 11 12 13 14 15 16 17 18 19 20 21 22 23 24 25 26 27 28 29 30 31 32 33 34 35 36 37 38 39 40 41 42 43 44 45 46 47 48 49 50
000
ASUS43 KGRB 172200
RWRGRB

NORTH-CENTRAL AND NORTHEAST WISCONSIN REGIONAL WEATHER ROUNDUP
NATIONAL WEATHER SERVICE GREEN BAY WI
400 PM CST TUE JAN 17 2017

WIZ005-009-010>012-018-019-172300-
NORTH CENTRAL WISCONSIN

CITY           SKY/WX    TMP DP  RH WIND       PRES   REMARKS
IRONWOOD       CLEAR     37  26  64 NW7       29.91R
MANITOWISH WTR NOT AVBL
ARBOR VITAE    NOT AVBL
EAGLE RIVER    NOT AVBL
LAND O LAKES   NOT AVBL
RHINELANDER    CLOUDY    40  32  73 N3        29.88R
PHILLIPS       CLEAR     42  31  64 CALM      29.87S
ANTIGO         NOT AVBL
TOMAHAWK       NOT AVBL
MERRILL        CLOUDY    37  34  90 CALM        N/A
$$

WIZ013-073-172300-
NORTHEAST WISCONSIN

CITY           SKY/WX    TMP DP  RH WIND       PRES   REMARKS
IRON MOUNTAIN  CLOUDY    36  31  82 CALM      29.86R
MARINETTE      NOT AVBL
$$

WIZ017-030-035>037-045-172300-
CENTRAL WISCONSIN

CITY           SKY/WX    TMP DP  RH WIND       PRES   REMARKS
MEDFORD        NOT AVBL
WAUSAU         CLOUDY    36  34  92 CALM      29.87R
MOSINEE        CLOUDY    34  34 100 CALM      29.89  FOG
MARSHFIELD     CLOUDY    34  32  92 NW6       29.88R FOG
WISC RAPIDS    NOT AVBL
STEVENS POINT  NOT AVBL
WAUPACA        NOT AVBL
SHAWANO        NOT AVBL
CLINTONVILLE   LGT RAIN  34  32  93 N7        29.89R VSB 3/4
WAUTOMA        CLOUDY    34  33  96 NW3       29.90R
$$

WIZ038-039-048-051-172300-
FOX VALLEY

CITY           SKY/WX    TMP DP  RH WIND       PRES   REMARKS
NWS GREEN BAY  FOG       35  35 100 N8        29.88R VSB 1
APPLETON         N/A     34  34 100 N8        29.85R FOG
OSHKOSH        FOG       34  33  96 NW6       29.88R VSB 3/4
FOND DU LAC    CLOUDY    34  32  92 NW6       29.88R FOG
$$

WIZ022-050-052-172300-
EAST CENTRAL WISCONSIN

CITY           SKY/WX    TMP DP  RH WIND       PRES   REMARKS
EPHRAIM        NOT AVBL
WASHINGTON ISL NOT AVBL
STURGEON BAY   FOG       33  32  96 N10       29.87R VSB 1/4
MANITOWOC      MIX PCPN  34  34 100 NW7       29.86R FOG
SHEBOYGAN      CLOUDY    34  33  96 NW8       29.86R FOG
$$

LMZ563-521-522-541>543-172300-
LAKESHORE

STATION/POSITION TIME  TEMP    WIND        PRES    VSBY  WAVE
                       AIR SEA DIR/SP/G                  HT/PER
                 (UTC) (F)     (DEG/KT/KT) (MB)    (MI)  (FT/S)
SHEBOYGAN LKSHOR 2100   35     300/  7/  9 1010.8R
KEWAUNEE LKSHORE 2130   35     330/  7/  9 1010.3R
ALGOMA MARINA    2108          340/  2/  5   N/A
NORTHPORT PIER   2140   33      20/  7/  9 1011.5R
SISTER BAY LKSHO 2050   35      40/  5/ 10   N/A
MENOMINEE LKSHOR 2130          360/ 14/ 16 1010.8R
$$



USA.gov is the U.S. government's official web portal to all federal, state and local government web resources and services.